Regional Weather Roundup
Issued by NWS State College, PA

Home | Current Version | Previous Version | Text Only | Print | Product List | Glossary Off
Versions: 1 2 3 4 5 6 7 8 9 10 11 12 13 14 15 16 17 18 19 20 21 22 23 24 25 26 27 28 29 30 31 32 33 34 35 36 37 38 39 40 41 42 43 44 45 46 47 48 49 50

000
ASUS41 KCTP 172310
RWRCTP

REGIONAL WEATHER ROUNDUP
NATIONAL WEATHER SERVICE STATE COLLEGE PA
700 PM EDT THU APR 17 2014

Note: "fair" indicates few or no clouds below 12,000 feet with no
significant weather and/or obstructions to visibility.

* = STATION THAT DOES NOT REPORT PRECIPITATION /E.G. RAIN...SNOW...ETC/
    THUNDER OR FOG.

PAZ002>004-007>009-013>016-020>023-029>032-180000-
WESTERN PENNSYLVANIA

CITY           SKY/WX    TMP DP  RH WIND       PRES   REMARKS
ERIE           SUNNY     62  24  23 S9G18     30.31F
MEADVILLE      NOT AVBL
FRANKLIN*      SUNNY     57  27  30 SE12      30.37S
NEW CASTLE     FAIR      62  27  26 S8        30.33F
BEAVER COUNTY  SUNNY     63  28  27 SE8       30.33
BUTLER*        SUNNY     59  27  29 SE7       30.37S
PITTSBURGH INT MOSUNNY   62  25  24 SE13      30.33S
PITTSBURGH     SUNNY     62  24  23 SE12      30.34F
INDIANA*       CLEAR     54  27  35 SE13G21   30.40S
LATROBE        SUNNY     57  28  33 SE17      30.39S
WASHINGTON CO* SUNNY     61  28  29 E10       30.35S
$$

PAZ004>006-010>012-017>019-024>028-033>037-041-042-045-046-049>053-180000-
CENTRAL PENNSYLVANIA

CITY           SKY/WX    TMP DP  RH WIND       PRES   REMARKS
BRADFORD       CLEAR     50  20  30 S12G17    30.39S
DUBOIS         CLEAR     53  25  33 SE12G20   30.39S
CLEARFIELD     CLEAR     52  22  30 S8G17     30.43F
JOHNSTOWN      CLEAR     47  24  40 SE14G20   30.41S
ALTOONA        CLEAR     51  26  37 SE8G20    30.46S
STATE COLLEGE  CLEAR     54  21  28 S12       30.47S
WILLIAMSPORT   PTCLDY    52  26  36 SE8G16    30.49F
SELINSGROVE    PTCLDY    53  28  38 SE9       30.53S
FT INDIANTOWN  CLEAR     51  29  42 SE8       30.54F
CAPITAL CITY   CLEAR     52  30  43 E10       30.54S
HARRISBURG     PTCLDY    53  31  42 SE13      30.53F
YORK           CLEAR     51  30  44 SE13      30.54F
$$

PAZ038>040-043-044-047-048-054-055-060>062-067>071-180000-
EASTERN PENNSYLVANIA

CITY           SKY/WX    TMP DP  RH WIND       PRES   REMARKS
SCRANTON       PTCLDY    49  21  33 VRB7G21   30.53F
MOUNT POCONO   CLEAR     42  22  44 S9        30.54S
ALLENTOWN      CLEAR     48  24  39 SE10      30.60R
QUAKERTOWN*    CLEAR     45  27  49 SE10      30.61S
READING        CLEAR     50  28  42 E13G21    30.56S
LANCASTER      CLEAR     50  31  48 SE13      30.55F
COATESVILLE    NOT AVBL
POTTSTOWN      CLEAR     45  29  53 VRB5      30.62R
BLUE BELL      CLEAR     46  28  49 E7        30.61F
DOYLESTOWN     CLEAR     43  28  55 VRB6      30.61S
WILLOW GROVE   NOT AVBL
NORTH PHILA    CLEAR     46  26  45 E10       30.65S
PHILADELPHIA   MOCLDY    47  26  44 E15       30.64R
$$



USA.gov is the U.S. government's official web portal to all federal, state and local government web resources and services.